TimeEST,TemperatureF,Dew PointF,Humidity,Sea Level PressureIn,VisibilityMPH,Wind Direction,Wind SpeedMPH,Gust SpeedMPH,PrecipitationIn,Events,Conditions,WindDirDegrees,DateUTC
12:56 AM,64.0,62.1,93,30.08,10.0,Calm,Calm,-,N/A,,Partly Cloudy,0,2013-11-07 05:56:00
1:56 AM,63.0,61.0,93,30.07,10.0,NNW,3.5,-,N/A,,Mostly Cloudy,330,2013-11-07 06:56:00
2:56 AM,63.0,60.1,90,30.06,10.0,Calm,Calm,-,N/A,,Mostly Cloudy,0,2013-11-07 07:56:00
3:56 AM,62.1,60.1,93,30.05,9.0,NNW,3.5,-,N/A,,Partly Cloudy,340,2013-11-07 08:56:00
4:56 AM,62.1,60.1,93,30.03,10.0,NNW,3.5,-,N/A,,Clear,330,2013-11-07 09:56:00
5:56 AM,61.0,60.1,97,30.03,9.0,Calm,Calm,-,N/A,,Clear,0,2013-11-07 10:56:00
6:56 AM,61.0,59.0,93,30.04,8.0,Calm,Calm,-,N/A,,Clear,0,2013-11-07 11:56:00
7:17 AM,61.0,59.0,93,30.05,8.0,Calm,Calm,-,N/A,,Partly Cloudy,0,2013-11-07 12:17:00
7:30 AM,62.1,60.1,93,30.05,9.0,Calm,Calm,-,N/A,,Mostly Cloudy,0,2013-11-07 12:30:00
7:37 AM,62.1,60.1,93,30.05,9.0,NW,3.5,-,N/A,,Scattered Clouds,320,2013-11-07 12:37:00
7:56 AM,63.0,60.1,90,30.06,9.0,NW,3.5,-,N/A,,Clear,320,2013-11-07 12:56:00
8:26 AM,63.0,61.0,93,30.06,9.0,NW,3.5,-,N/A,,Partly Cloudy,320,2013-11-07 13:26:00
8:56 AM,64.0,62.1,93,30.07,10.0,West,3.5,-,N/A,,Partly Cloudy,270,2013-11-07 13:56:00
9:56 AM,68.0,64.0,87,30.07,10.0,West,4.6,-,N/A,,Clear,260,2013-11-07 14:56:00
10:56 AM,71.1,63.0,75,30.06,10.0,Variable,5.8,-,N/A,,Clear,0,2013-11-07 15:56:00
11:56 AM,75.0,63.0,66,30.03,10.0,NW,5.8,-,N/A,,Clear,310,2013-11-07 16:56:00
12:56 PM,77.0,62.1,60,29.99,10.0,NW,8.1,-,N/A,,Clear,320,2013-11-07 17:56:00
1:56 PM,75.9,61.0,60,29.99,10.0,WNW,8.1,-,N/A,,Mostly Cloudy,300,2013-11-07 18:56:00
2:56 PM,75.9,62.1,62,29.97,10.0,WNW,6.9,-,N/A,,Overcast,290,2013-11-07 19:56:00
3:56 PM,75.0,63.0,66,29.97,10.0,WNW,8.1,-,N/A,,Mostly Cloudy,300,2013-11-07 20:56:00
4:56 PM,73.0,63.0,71,29.98,10.0,WNW,6.9,-,N/A,,Mostly Cloudy,300,2013-11-07 21:56:00
5:56 PM,70.0,63.0,78,29.99,10.0,WNW,5.8,-,N/A,,Clear,290,2013-11-07 22:56:00
6:56 PM,68.0,63.0,84,30.01,10.0,WNW,6.9,-,N/A,,Clear,300,2013-11-07 23:56:00
7:56 PM,66.9,62.1,84,30.02,10.0,WNW,6.9,-,N/A,,Clear,290,2013-11-08 00:56:00
8:56 PM,66.0,61.0,84,30.03,10.0,West,8.1,-,N/A,,Clear,280,2013-11-08 01:56:00
9:56 PM,64.9,59.0,81,30.03,10.0,NW,10.4,-,N/A,,Clear,310,2013-11-08 02:56:00
10:56 PM,63.0,54.0,72,30.04,10.0,NW,10.4,-,N/A,,Clear,320,2013-11-08 03:56:00
11:56 PM,62.1,52.0,70,30.05,10.0,NNW,11.5,-,N/A,,Clear,340,2013-11-08 04:56:00